Temperature
21 21 20 21 27 29 28 28 28 28 27 26 25 25 26 25 25 23 21 20 20 20 19 19 19 19 19 19 19 19 19 19 19 19 19 18 18 18 18 18 18 18 18 18 18 18 18 18 18
21 21 21 25 29 28 28 28 28 27 27 26 25 25 25 24 22 21 20 20 20 19 19 19 19 19 19 19 19 19 19 19 19 19 19 18 18 18 18 18 18 18 18 18 18 18 18 18 18
21 21 25 29 29 28 28 28 28 27 26 26 26 25 24 23 22 21 20 20 20 19 19 19 19 19 19 19 19 19 19 19 19 19 18 18 18 18 18 18 18 18 18 18 18 18 18 18 18
21 24 27 29 28 28 28 28 28 28 27 26 26 25 23 21 21 21 20 20 20 19 19 19 19 19 19 19 19 19 19 19 19 18 18 18 18 18 18 18 18 18 18 18 18 18 18 18 18
23 27 30 29 29 28 29 28 28 28 27 26 26 25 23 21 21 20 20 20 20 20 19 19 19 19 19 19 19 19 19 19 19 18 18 18 18 18 18 18 18 18 18 18 18 18 18 18 18
27 30 30 29 28 28 29 28 28 28 27 26 26 25 23 21 20 20 20 20 20 20 19 19 19 19 19 18 18 18 18 19 18 18 18 18 18 18 18 18 18 18 18 18 18 18 18 18 18
29 30 30 29 29 28 28 27 28 27 27 26 25 25 23 21 20 20 20 20 20 20 19 19 19 19 19 19 18 18 18 18 18 18 18 18 18 18 18 18 18 18 18 18 18 18 18 18 18
28 31 30 30 29 28 28 27 27 27 26 25 25 25 23 21 20 20 20 20 20 20 19 19 19 19 18 18 18 18 18 18 18 18 18 18 18 18 18 18 18 18 18 18 18 18 18 18 18
28 31 30 30 29 29 28 28 27 26 25 24 24 24 22 21 20 20 20 20 19 19 19 19 19 19 18 18 18 18 18 18 18 18 18 18 18 18 18 18 18 18 18 18 18 18 18 18 18
30 30 30 30 30 29 28 28 27 27 26 25 24 22 21 21 20 20 20 20 19 19 19 19 19 18 18 18 18 18 18 18 18 18 18 18 18 18 18 18 18 18 18 18 18 18 18 18 17
30 30 30 30 29 29 28 28 27 28 27 26 24 23 21 21 21 21 20 20 19 19 19 19 19 18 18 18 18 18 18 18 18 18 18 18 18 18 18 18 18 18 18 18 17 17 17 17 17
30 30 29 29 28 28 28 28 27 27 26 25 24 23 22 21 21 21 20 20 19 19 19 19 19 18 18 18 18 18 18 18 18 18 18 18 18 18 18 18 18 18 18 17 17 17 17 17 17
30 30 29 28 28 28 28 27 27 26 25 24 23 22 22 22 21 21 20 20 19 19 19 19 18 18 18 18 18 18 18 18 18 18 18 18 18 18 18 18 18 18 17 17 17 17 17 17 17
30 29 29 28 28 28 28 27 27 26 24 24 23 22 22 21 21 20 20 19 19 19 19 19 18 18 18 18 18 18 18 18 18 18 18 18 18 18 18 17 17 17 17 17 17 17 17 17 17
29 30 30 29 29 28 28 28 27 25 24 24 23 22 22 21 21 20 20 19 19 19 18 18 18 18 18 18 18 18 18 18 18 18 18 18 18 17 17 17 17 17 17 17 17 17 17 17 17
31 31 30 30 29 28 29 28 27 25 25 24 23 22 22 21 21 20 19 19 19 19 18 18 18 18 18 18 18 18 18 18 18 18 18 18 18 18 17 17 17 17 17 17 17 17 17 17 17
31 31 30 30 30 29 29 29 27 26 25 25 24 23 22 21 21 20 20 19 19 18 18 18 18 18 18 18 18 18 18 18 18 18 17 17 17 17 17 17 17 17 17 17 17 17 17 17 17
31 31 30 30 30 29 29 29 28 26 26 25 24 23 22 22 21 20 20 19 19 18 18 18 18 18 17 17 17 17 17 17 17 17 17 17 17 17 17 17 17 17 17 17 17 17 17 17 17
31 31 30 30 30 29 29 29 28 26 26 26 25 24 23 22 21 20 20 19 19 18 18 18 18 18 17 17 17 17 17 17 17 17 17 17 17 17 17 17 17 17 17 17 17 17 17 17 17
31 30 30 30 29 29 29 29 28 27 26 25 25 24 23 22 21 20 20 19 19 18 18 18 18 18 17 17 17 17 17 17 17 17 17 17 17 17 17 17 17 17 17 17 17 17 17 17 17
31 31 31 30 29 29 29 29 28 28 26 25 25 24 23 23 22 21 20 19 19 18 18 18 18 18 18 17 17 17 17 17 17 17 17 17 17 17 17 17 17 17 17 17 17 17 17 17 17
31 31 30 30 30 30 29 30 29 28 27 26 25 24 24 23 22 21 21 20 19 18 18 18 18 18 18 17 17 17 17 17 17 17 17 17 17 17 17 17 17 17 17 17 16 16 16 16 16
30 30 30 30 30 30 30 30 30 29 28 28 27 25 24 23 23 22 21 20 19 19 18 18 18 18 18 17 17 17 17 17 17 17 17 17 17 17 17 17 17 17 16 16 16 16 16 16 16
30 30 30 30 31 29 30 29 30 30 28 28 27 25 24 23 23 22 21 20 19 19 18 18 17 18 17 17 17 17 17 16 16 16 16 16 17 16 16 16 16 16 16 16 16 16 16 16 16
30 30 30 30 30 30 30 29 29 29 29 28 27 26 24 23 23 22 21 20 19 19 18 18 17 17 17 17 17 17 17 16 16 16 16 16 16 16 16 16 16 16 16 16 16 16 16 16 16
30 31 29 29 29 30 30 29 30 29 28 27 26 25 24 23 22 22 21 20 19 19 18 18 17 17 17 17 17 17 16 16 16 16 16 16 16 16 16 16 16 16 16 16 16 15 16 16 15
30 31 31 30 30 29 30 30 29 29 28 27 26 25 24 23 22 22 21 20 20 19 18 18 17 17 17 17 17 16 16 16 16 16 15 15 15 15 16 16 16 16 16 16 15 15 15 15 15
30 31 30 30 28 29 29 30 29 28 28 27 27 26 25 24 23 22 21 20 20 19 18 18 17 17 17 17 16 16 16 16 16 15 15 15 15 15 15 15 15 15 15 15 15 15 15 15 15
29 30 29 30 30 29 29 29 29 28 28 27 27 26 25 24 23 22 21 20 20 19 18 18 17 17 17 17 16 16 16 16 15 15 15 15 15 15 15 15 15 15 15 15 15 15 15 15 15
30 30 30 29 28 29 29 29 29 29 28 27 26 25 24 23 23 22 21 20 20 19 18 18 17 17 17 17 16 16 16 16 15 15 15 15 15 15 15 15 15 15 15 15 15 15 15 14 14
Wind_Speed
11 8 5 4 3 5 12 10 10 9 8 8 8 6 7 9 7 6 4 5 6 6 9 12 11 10 9 9 8 8 8 8 9 9 10 10 10 11 11 11 11 11 11 11 11 11 11 10 9
7 5 4 3 2 9 11 10 11 10 7 5 6 6 7 8 7 6 5 5 6 7 9 11 12 10 9 9 8 8 8 8 8 8 8 9 9 10 10 10 10 10 10 10 10 10 10 10 10
6 5 3 1 8 10 10 10 9 9 7 5 5 7 6 6 6 4 6 7 8 8 9 12 11 9 8 8 8 7 7 7 7 8 7 8 9 10 10 10 10 10 9 8 8 9 9 9 9
4 4 2 5 12 12 10 9 7 8 8 7 5 7 6 6 4 6 8 8 8 8 9 12 10 9 8 7 7 7 7 7 7 7 7 8 8 9 9 9 9 9 8 8 7 7 7 8 8
4 2 4 9 12 10 10 9 7 9 8 7 7 8 7 6 7 8 8 7 7 7 8 11 10 8 7 7 7 6 6 7 7 6 6 7 7 8 8 8 8 8 8 8 7 7 6 7 7
3 0 5 9 10 9 9 8 8 10 9 8 6 7 6 6 7 7 7 6 7 7 8 10 11 9 7 7 6 6 6 6 6 5 5 6 6 7 7 7 7 7 7 7 7 7 6 6 7
2 4 7 8 8 9 7 7 8 8 9 8 5 6 6 6 5 6 7 7 7 7 7 7 8 9 8 7 6 5 5 5 4 4 4 4 5 6 7 7 6 6 6 6 6 6 6 6 7
3 2 7 8 8 8 7 7 7 7 8 6 5 6 5 6 6 7 7 7 7 6 6 5 5 6 5 7 7 5 5 4 3 3 3 4 6 7 8 8 6 5 6 6 6 6 6 6 6
2 3 8 8 7 7 6 6 7 6 8 7 7 8 8 9 8 8 8 7 7 6 5 5 5 4 4 4 6 5 5 4 4 4 4 5 4 5 6 5 5 4 5 5 5 6 7 7 8
2 6 8 6 6 6 6 6 5 5 7 7 8 9 10 9 8 8 8 7 6 5 4 4 4 4 3 2 3 2 2 3 2 1 2 2 2 2 4 6 7 6 6 6 6 6 7 8 6
3 5 5 5 5 4 5 6 4 4 6 5 7 9 9 9 7 7 6 6 6 5 4 4 4 3 2 2 1 1 1 1 1 1 1 1 2 2 2 2 4 5 6 4 5 6 4 4 3
2 4 3 4 3 3 4 5 5 6 6 6 7 9 9 8 6 6 5 5 5 5 4 3 3 2 2 2 1 1 0 1 0 1 2 1 1 1 0 1 1 2 2 1 1 2 2 3 4
3 3 4 4 4 5 5 5 5 6 6 7 9 9 8 7 6 5 5 5 5 4 3 2 1 2 1 1 1 1 1 1 1 0 0 1 1 0 0 0 0 1 1 2 2 2 2 2 3
3 4 4 4 5 4 4 4 3 5 6 8 8 8 7 6 6 5 4 4 3 3 2 2 1 1 1 0 0 1 1 0 1 0 1 1 1 0 1 1 0 1 1 1 1 2 2 2 2
3 3 4 4 3 3 3 4 4 5 6 8 8 7 6 6 5 4 4 3 3 2 2 1 2 2 1 0 1 1 1 0 1 0 1 0 1 1 1 1 1 1 1 1 2 2 3 3 3
4 4 2 3 2 3 4 3 6 6 7 7 7 6 6 5 5 4 4 3 2 2 2 2 1 1 1 0 1 1 2 2 1 1 0 0 1 1 2 1 1 1 1 2 2 2 2 3 3
3 2 1 2 3 2 3 1 4 6 6 6 6 6 6 5 4 4 4 3 2 1 1 1 1 0 0 0 1 1 1 1 2 1 1 1 1 1 2 1 1 1 1 2 2 1 2 2 3
3 3 2 1 2 3 3 1 4 6 6 6 6 6 6 5 5 4 3 3 2 2 1 1 1 0 1 1 1 1 1 1 1 1 1 1 1 2 3 2 1 2 1 2 2 2 2 2 3
4 4 3 2 1 3 4 3 4 5 6 6 6 6 6 5 5 4 4 3 3 2 1 2 1 0 1 1 2 1 1 1 1 1 1 1 1 1 2 2 1 2 2 2 2 2 2 2 1
4 4 2 1 1 3 3 3 4 6 7 6 6 6 6 5 5 5 4 3 3 2 2 3 2 0 1 1 1 2 2 2 1 1 1 1 1 2 1 1 2 1 2 2 2 2 2 2 1
4 4 4 2 2 4 4 5 6 6 6 6 6 6 6 6 6 6 5 4 3 3 2 2 1 1 0 1 1 1 1 2 1 1 1 1 1 1 2 1 2 2 2 1 2 2 2 2 2
4 3 4 3 5 2 3 4 3 6 7 7 7 6 6 6 6 6 6 5 4 4 3 2 2 1 0 0 1 2 2 2 2 2 1 1 1 1 1 1 1 2 2 2 3 1 2 2 2
3 3 4 5 6 5 3 5 1 5 4 5 5 6 6 6 6 5 5 5 4 4 3 3 2 1 1 0 1 2 2 2 1 1 1 2 1 1 1 1 1 2 2 2 2 2 3 2 3
2 3 5 6 7 5 2 5 2 2 1 2 4 5 6 5 6 6 6 5 5 4 3 3 3 2 1 0 0 1 2 2 3 2 2 1 1 1 1 1 2 2 2 2 2 2 2 2 3
6 7 5 5 4 3 1 4 2 4 2 1 3 5 6 6 6 6 6 6 5 4 3 3 3 2 1 1 1 1 2 2 2 2 1 2 2 1 2 2 2 2 2 2 2 2 2 2 3
6 8 6 7 6 4 2 3 3 4 2 2 4 6 6 6 6 6 6 6 6 5 4 3 3 2 1 1 0 0 2 2 1 2 2 1 2 2 2 1 1 2 2 2 2 2 2 2 3
5 7 7 8 8 7 3 1 2 3 3 4 5 6 7 7 6 6 6 6 6 5 5 4 4 3 2 1 1 0 0 1 2 1 1 1 1 1 1 1 1 1 2 2 3 2 3 3 3
4 5 5 6 6 7 4 3 1 2 2 4 5 6 7 7 7 6 5 6 5 5 5 4 4 3 2 2 1 1 1 0 1 1 1 1 1 1 1 1 1 1 1 1 2 2 2 3 3
5 5 5 6 6 8 6 2 4 1 2 3 4 6 7 7 7 6 5 5 5 5 5 5 4 3 2 1 1 1 1 0 0 1 1 1 0 0 1 1 1 2 2 2 2 3 3 3 3
7 7 7 7 6 7 8 2 4 2 3 3 3 5 6 7 6 6 6 6 5 5 5 4 4 3 2 2 1 1 1 0 0 1 1 1 0 0 0 1 2 2 2 2 3 3 3 3 3
Wind_Direction
182 185 212 236 222 81 64 55 52 52 53 50 52 51 51 40 34 70 78 92 101 110 118 122 117 120 120 119 116 114 120 124 130 135 138 142 148 149 147 149 147 147 149 152 153 152 153 152 151
174 188 228 244 52 77 65 53 54 50 59 68 64 57 59 57 52 85 101 109 116 115 117 116 116 120 120 117 111 108 111 116 124 134 139 146 150 153 154 154 153 153 154 156 158 156 158 158 156
181 226 267 55 58 60 64 54 58 64 64 60 64 56 49 54 63 81 102 122 116 112 114 113 118 119 118 115 112 109 110 118 123 129 136 145 149 152 155 159 160 160 161 163 164 163 163 162 158
217 226 226 77 73 62 63 64 61 69 66 57 70 74 69 51 52 91 111 118 115 117 117 113 119 119 118 117 115 111 108 113 119 125 131 138 145 147 154 159 159 162 165 164 163 167 171 167 164
241 257 94 81 75 70 67 61 55 57 59 62 66 79 74 58 77 103 113 116 113 113 112 114 118 120 118 117 118 111 107 110 117 124 127 136 145 151 153 155 159 162 167 170 168 173 176 177 174
248 236 73 76 80 79 72 60 57 63 70 69 69 78 77 77 90 106 111 107 105 106 106 108 122 119 114 113 117 115 108 108 116 123 130 141 146 152 156 156 158 162 167 173 173 176 181 185 181
345 56 69 76 85 83 69 57 51 61 63 56 56 73 94 87 91 109 109 101 98 98 100 106 117 126 130 123 118 120 114 113 113 124 134 147 157 163 167 168 169 171 172 175 177 180 185 189 187
325 67 77 73 72 73 74 66 56 54 64 66 54 67 90 109 113 110 107 101 95 91 91 94 99 110 128 131 126 124 123 124 130 136 156 174 181 177 178 179 174 182 186 186 188 185 189 196 198
286 67 62 59 62 73 79 78 70 74 83 72 62 65 98 118 120 114 109 101 94 88 88 90 95 101 108 115 124 145 154 152 172 173 185 206 193 179 176 162 166 185 192 193 196 194 202 205 202
333 55 58 53 59 85 86 75 81 95 86 84 84 89 110 122 122 115 110 107 100 94 88 90 86 82 89 95 117 145 159 150 180 175 199 194 183 194 184 164 181 192 198 196 196 200 208 220 208
38 54 63 69 70 91 99 82 66 88 73 79 103 114 123 125 125 120 113 109 107 106 97 93 85 77 68 82 99 102 103 127 177 177 202 192 213 206 188 183 186 190 196 198 182 198 210 218 225
78 60 58 75 86 106 99 94 78 63 69 85 109 124 128 131 124 117 110 105 105 105 97 88 88 82 46 24 52 84 94 108 154 172 236 240 245 263 125 200 224 205 187 182 219 209 197 222 228
99 85 79 92 103 100 100 96 90 83 89 104 115 125 128 129 125 117 110 107 104 103 101 93 69 83 77 40 343 28 14 22 88 162 179 266 248 266 204 241 272 252 224 211 214 220 222 226 222
78 102 109 113 115 124 114 109 107 100 119 122 126 127 129 127 126 118 115 114 113 105 91 86 78 99 102 107 345 344 6 26 359 354 67 298 290 320 285 251 280 265 248 270 258 240 233 240 237
150 146 141 133 133 136 166 123 104 123 139 136 135 131 130 130 132 128 127 125 119 114 87 76 109 104 100 330 313 318 312 359 353 7 58 357 314 327 288 292 269 325 308 263 246 248 242 234 233
210 222 183 128 155 165 242 95 109 143 154 148 145 143 144 140 139 133 129 130 121 110 104 85 78 104 135 302 302 310 321 338 325 325 323 264 271 266 273 279 300 323 284 272 254 252 250 243 242
223 274 1 130 167 195 254 87 126 161 168 162 161 160 157 150 150 145 143 146 140 120 101 106 95 77 272 258 274 282 297 309 312 311 299 287 264 258 260 262 333 270 270 285 281 247 262 251 245
324 322 319 309 160 219 242 177 155 171 183 177 171 172 170 169 161 155 152 150 153 147 137 164 197 282 287 273 276 292 305 297 308 296 315 284 264 263 279 244 222 279 273 278 286 263 251 253 253
306 300 308 348 108 243 247 226 178 178 190 186 181 182 179 179 165 164 165 164 164 170 174 180 230 292 285 294 300 297 292 301 324 324 356 304 286 273 270 290 250 268 268 271 263 254 232 235 237
275 280 302 91 155 260 256 236 190 188 195 196 192 191 189 187 180 180 182 182 178 175 183 177 183 214 282 327 315 312 309 300 323 345 6 322 299 289 253 280 275 277 273 260 264 246 259 235 210
264 296 314 304 226 222 254 208 190 188 196 197 200 197 195 194 196 191 190 192 185 177 174 164 147 134 355 328 291 306 275 284 314 326 330 352 328 292 320 306 299 292 284 281 273 257 248 257 235
277 320 288 257 251 268 275 297 165 182 190 198 202 198 196 190 190 189 190 190 188 180 167 153 148 139 122 243 299 295 303 313 322 317 342 338 336 312 293 288 290 288 289 289 275 279 271 266 257
314 300 258 257 269 279 252 288 121 163 201 195 196 196 194 188 184 184 183 178 177 170 164 154 152 148 161 209 237 275 302 311 323 331 360 326 337 309 312 293 289 282 285 297 307 312 286 273 274
202 222 224 236 258 272 301 284 323 107 197 174 172 178 183 180 176 178 176 170 170 166 162 156 151 153 167 203 309 300 311 326 338 335 333 307 324 329 0 331 320 296 298 286 287 295 280 291 297
234 259 267 263 253 290 87 273 355 49 58 150 161 162 166 167 167 167 168 168 165 162 160 148 140 148 166 186 250 274 292 292 304 309 311 319 343 355 11 355 342 331 325 307 300 297 312 296 286
245 268 283 299 306 311 207 279 47 64 80 128 148 151 154 158 158 161 164 165 165 165 159 145 139 145 144 149 183 263 274 280 293 308 323 327 338 6 17 4 359 348 335 321 315 307 316 311 288
250 256 284 284 283 283 283 256 128 113 116 124 138 145 149 153 154 156 157 160 164 165 159 158 152 151 150 136 133 124 315 320 323 314 304 12 25 358 20 19 28 8 349 334 319 331 329 328 310
277 276 261 274 291 289 281 266 332 131 135 141 148 153 151 150 150 148 149 154 155 157 154 155 151 159 168 163 170 137 158 232 275 297 13 23 14 4 344 319 341 333 311 294 297 303 326 321 319
216 231 255 270 283 290 296 327 43 97 139 158 156 153 152 151 149 146 144 147 149 148 148 151 153 156 153 146 135 86 86 76 35 34 47 74 8 314 314 308 300 300 300 291 284 299 306 300 307
246 254 250 264 273 273 287 309 72 98 143 144 142 143 147 149 150 147 143 144 149 152 152 155 159 157 153 144 144 133 112 90 58 50 14 12 32 346 339 292 293 296 301 300 292 294 303 300 300
Height
1508 1508 1509 1510 1504 1500 1506 1504 1501 1503 1506 1509 1509 1509 1509 1510 1512 1521 1521 1519 1519 1520 1519 1519 1519 1520 1520 1521 1521 1522 1522 1523 1524 1525 1526 1527 1528 1529 1531 1533 1534 1536 1537 1538 1539 1541 1542 1543 1544
1510 1509 1511 1508 1499 1507 1511 1505 1506 1507 1510 1511 1511 1511 1512 1515 1518 1520 1521 1521 1521 1521 1522 1521 1521 1521 1522 1522 1523 1523 1524 1524 1525 1526 1526 1527 1528 1529 1531 1533 1535 1536 1537 1539 1540 1541 1542 1543 1544
1510 1510 1511 1502 1502 1508 1511 1507 1508 1510 1511 1512 1512 1514 1516 1519 1521 1522 1522 1522 1523 1523 1524 1523 1523 1523 1523 1524 1524 1525 1525 1525 1526 1526 1527 1527 1528 1529 1531 1533 1535 1536 1538 1539 1540 1541 1542 1544 1545
1512 1512 1509 1503 1508 1507 1508 1509 1509 1509 1512 1513 1513 1516 1520 1523 1523 1524 1523 1524 1524 1525 1526 1525 1524 1525 1525 1525 1526 1526 1526 1526 1527 1527 1528 1528 1529 1530 1532 1534 1535 1536 1538 1539 1540 1541 1542 1544 1545
1513 1509 1503 1505 1508 1509 1509 1511 1511 1510 1513 1515 1515 1518 1522 1525 1524 1524 1525 1526 1526 1527 1527 1527 1526 1526 1526 1527 1527 1527 1527 1528 1528 1528 1529 1529 1530 1531 1532 1534 1535 1536 1537 1539 1540 1541 1542 1543 1544
1512 1504 1505 1510 1511 1510 1511 1513 1512 1513 1515 1517 1517 1519 1524 1526 1526 1526 1527 1527 1528 1528 1529 1528 1527 1527 1528 1528 1528 1529 1528 1529 1529 1530 1530 1531 1531 1532 1533 1534 1535 1536 1537 1538 1539 1540 1542 1543 1544
1510 1503 1506 1507 1510 1511 1513 1515 1514 1515 1517 1519 1520 1520 1525 1527 1528 1528 1529 1529 1530 1530 1531 1531 1531 1530 1529 1529 1529 1529 1529 1530 1530 1531 1531 1531 1532 1533 1534 1535 1536 1537 1537 1538 1539 1540 1541 1542 1543
1511 1504 1505 1506 1510 1512 1515 1516 1517 1517 1520 1523 1522 1522 1526 1529 1529 1530 1530 1530 1531 1532 1532 1532 1532 1532 1532 1532 1531 1530 1530 1530 1531 1531 1531 1532 1532 1533 1534 1535 1535 1536 1537 1538 1539 1539 1540 1541 1542
1511 1505 1509 1508 1510 1512 1515 1516 1519 1521 1522 1524 1525 1526 1528 1530 1530 1531 1531 1532 1532 1533 1533 1533 1533 1534 1534 1534 1532 1532 1531 1531 1531 1532 1532 1532 1533 1534 1535 1535 1535 1536 1536 1537 1538 1539 1540 1541 1541
1509 1508 1511 1510 1510 1512 1516 1517 1519 1519 1521 1524 1526 1528 1529 1530 1531 1532 1532 1533 1533 1533 1534 1534 1534 1534 1534 1534 1533 1533 1533 1532 1532 1532 1532 1533 1533 1534 1534 1534 1535 1535 1535 1536 1537 1538 1539 1540 1541
1509 1510 1511 1512 1514 1515 1516 1518 1519 1518 1520 1524 1526 1529 1530 1531 1532 1533 1533 1534 1535 1535 1535 1535 1535 1534 1535 1535 1534 1534 1533 1533 1533 1532 1532 1532 1533 1534 1534 1535 1535 1535 1535 1536 1536 1537 1538 1539 1540
1512 1513 1513 1514 1516 1516 1516 1518 1520 1520 1524 1526 1528 1530 1531 1532 1533 1534 1535 1536 1536 1536 1536 1536 1536 1535 1535 1535 1535 1534 1534 1533 1533 1532 1532 1532 1533 1533 1534 1534 1534 1534 1535 1535 1535 1536 1537 1537 1538
1511 1513 1515 1516 1517 1517 1518 1519 1521 1524 1526 1527 1529 1531 1532 1533 1534 1535 1536 1537 1537 1537 1537 1537 1536 1536 1535 1535 1535 1535 1534 1534 1533 1532 1532 1532 1533 1533 1533 1533 1533 1534 1534 1534 1534 1535 1535 1536 1536
1513 1514 1515 1516 1517 1519 1519 1520 1521 1525 1527 1528 1530 1531 1533 1534 1535 1536 1537 1537 1537 1537 1537 1537 1536 1536 1535 1535 1535 1534 1534 1533 1534 1533 1532 1532 1533 1533 1533 1533 1532 1533 1533 1533 1533 1534 1534 1534 1534
1514 1513 1514 1515 1516 1518 1518 1519 1521 1525 1527 1529 1530 1532 1533 1535 1535 1536 1537 1537 1538 1538 1537 1537 1537 1536 1535 1535 1535 1535 1535 1534 1534 1533 1533 1532 1532 1532 1532 1533 1532 1532 1532 1532 1533 1533 1533 1533 1533
1511 1509 1511 1512 1514 1517 1517 1519 1522 1525 1527 1528 1530 1532 1534 1535 1536 1537 1537 1537 1538 1538 1537 1537 1537 1536 1536 1535 1534 1535 1534 1534 1533 1533 1533 1532 1532 1532 1532 1532 1532 1531 1532 1532 1532 1531 1531 1531 1531
1508 1510 1511 1512 1512 1514 1514 1516 1521 1524 1525 1527 1530 1531 1533 1535 1536 1536 1537 1537 1537 1537 1537 1537 1536 1536 1536 1535 1534 1534 1533 1533 1532 1532 1532 1532 1532 1532 1532 1532 1531 1531 1531 1531 1531 1530 1529 1529 1529
1512 1510 1511 1511 1510 1512 1513 1514 1518 1522 1523 1525 1528 1530 1532 1533 1534 1535 1536 1536 1537 1536 1536 1535 1536 1535 1535 1535 1534 1534 1533 1533 1532 1531 1531 1531 1531 1531 1531 1532 1530 1530 1530 1529 1529 1528 1528 1527 1527
1508 1510 1511 1509 1509 1511 1512 1513 1515 1519 1521 1523 1525 1528 1530 1532 1533 1535 1535 1535 1535 1534 1534 1534 1535 1534 1534 1534 1534 1533 1533 1532 1531 1531 1530 1530 1530 1530 1530 1530 1529 1529 1528 1527 1527 1526 1526 1526 1525
1508 1510 1509 1509 1510 1511 1511 1512 1512 1516 1519 1521 1523 1526 1528 1530 1532 1533 1534 1534 1534 1533 1532 1532 1533 1534 1533 1533 1533 1532 1532 1531 1531 1530 1529 1529 1529 1529 1529 1528 1528 1528 1527 1526 1526 1525 1525 1525 1524
1507 1508 1508 1510 1510 1509 1510 1510 1510 1513 1517 1520 1522 1524 1526 1528 1530 1531 1532 1533 1533 1532 1532 1532 1532 1532 1533 1533 1533 1532 1531 1530 1530 1529 1528 1528 1527 1527 1527 1527 1527 1526 1526 1526 1525 1524 1524 1524 1523
1508 1504 1506 1508 1510 1508 1510 1513 1507 1507 1512 1516 1519 1521 1523 1526 1528 1529 1530 1531 1532 1532 1532 1532 1532 1532 1531 1532 1532 1531 1531 1530 1529 1528 1528 1527 1526 1526 1526 1526 1525 1525 1525 1524 1524 1524 1523 1522 1522
1507 1505 1505 1505 1507 1507 1506 1511 1503 1505 1508 1510 1514 1518 1521 1523 1526 1528 1529 1530 1531 1532 1532 1532 1531 1531 1531 1531 1530 1530 1530 1529 1529 1528 1527 1526 1526 1525 1525 1525 1525 1524 1524 1523 1523 1522 1521 1521 1521
1506 1506 1505 1504 1503 1515 1508 1512 1507 1501 1505 1507 1511 1515 1519 1522 1524 1526 1528 1529 1530 1531 1531 1531 1531 1530 1530 1530 1529 1529 1528 1528 1527 1527 1526 1526 1526 1525 1524 1524 1523 1523 1523 1522 1521 1521 1520 1520 1519
1505 1508 1515 1516 1515 1513 1504 1510 1507 1501 1503 1506 1509 1513 1517 1520 1522 1525 1526 1528 1529 1530 1530 1531 1530 1530 1529 1529 1528 1528 1527 1527 1526 1526 1525 1525 1525 1524 1523 1523 1522 1522 1521 1521 1520 1520 1519 1518 1517
1503 1504 1518 1527 1521 1508 1504 1508 1501 1501 1504 1507 1510 1513 1516 1519 1521 1523 1525 1526 1528 1529 1529 1530 1529 1529 1529 1528 1528 1527 1526 1527 1526 1525 1525 1524 1524 1523 1522 1522 1521 1521 1520 1520 1519 1519 1518 1517 1516
1503 1502 1497 1505 1508 1512 1505 1501 1500 1501 1504 1507 1509 1512 1515 1518 1520 1522 1524 1525 1527 1528 1528 1528 1528 1528 1528 1527 1527 1526 1525 1525 1525 1524 1524 1523 1522 1522 1521 1521 1520 1520 1519 1519 1518 1518 1516 1516 1515
1501 1498 1502 1506 1522 1521 1509 1504 1502 1503 1503 1505 1508 1511 1514 1517 1519 1521 1523 1525 1526 1527 1527 1528 1528 1527 1527 1527 1526 1526 1524 1524 1523 1523 1522 1521 1520 1520 1520 1520 1519 1519 1518 1517 1517 1516 1515 1514 1514
1504 1503 1504 1503 1505 1517 1518 1509 1496 1499 1502 1504 1507 1510 1513 1516 1518 1520 1522 1524 1525 1526 1527 1527 1527 1527 1527 1526 1525 1524 1524 1523 1522 1522 1521 1520 1519 1519 1518 1518 1518 1518 1517 1516 1515 1515 1514 1513 1512
1497 1498 1501 1510 1512 1508 1510 1508 1496 1498 1501 1505 1507 1511 1513 1516 1518 1520 1521 1523 1525 1526 1526 1526 1526 1526 1526 1525 1524 1524 1523 1522 1522 1521 1520 1519 1518 1518 1517 1517 1517 1516 1516 1515 1515 1514 1513 1512 1510